Regional Weather Roundup
Issued by NWS

Home | Current Version | Previous Version | Graphics & Text | Print | Product List | Glossary On
Versions: 1 2 3 4 5 6 7 8 9 10 11 12 13 14 15 16 17 18 19 20 21 22 23 24 25 26 27 28 29 30 31 32 33 34 35 36 37 38 39 40 41 42 43 44 45 46 47 48 49 50
000
ASUS43 KLSX 232307
RWRMO

WEATHER SUMMARY FOR MISSOURI
NATIONAL WEATHER SERVICE SPRINGFIELD MO
500 PM CST THU FEB 23 2017

NOTE: "FAIR" INDICATES FEW OR NO CLOUDS BELOW 12,000 FEET WITH NO
       SIGNIFICANT WEATHER AND/OR OBSTRUCTIONS TO VISIBILITY.
       CURRENT SKY AND/OR WEATHER CONDITIONS ARE NOT AVAILABLE FOR
       CHILLICOTHE AND FARMINGTON.

MOZ001>031-035>038-043-044-053-054-240000-
...NORTHERN AND WESTERN MISSOURI...

CITY           SKY/WX    TMP DP  RH WIND       PRES   REMARKS
KANSAS CTY INT FAIR      56  45  66 NE13      29.45R
KANSAS C DTWN  FAIR      56  45  66 E12       29.42F
LEE`S SUMMIT   FAIR      57  47  69 NE10      29.41F
ST JOSEPH      CLOUDY    55  46  71 NE13      29.47F
CHILLICOTHE      N/A     51  46  83 E9        29.50F
KIRKSVILLE     CLOUDY    49  46  90 E16G22    29.51F

$$
MOZ066>068-077>081-088>096-101>105-240000-
...SOUTHWEST MISSOURI...

CITY           SKY/WX    TMP DP  RH WIND       PRES   REMARKS
SPRINGFIELD    FAIR      79  46  31 S18G30    29.43S
JOPLIN         FAIR      79  47  32 S14       29.38F
BRANSON        PTSUNNY   77  48  36 S17G23    29.50S

$$
MOZ032>034-039>042-045>050-055>058-069>072-240000-
...CENTRAL MISSOURI...

CITY           SKY/WX    TMP DP  RH WIND       PRES   REMARKS
COLUMBIA       FAIR      65  56  72 NE12      29.48F
JEFFERSON CITY FAIR      69  55  60 SE13      29.46S
ROLLA          FAIR      72  56  57 S14G23    29.49S
SEDALIA        FAIR      68  55  63 E12       29.44F
WHITEMAN AFB   PTSUNNY   66  57  72 E9        29.40F
WARRENSBURG    FAIR      63  52  67 E9G16     29.40F
OSAGE BEACH    FAIR      76  52  43 S10G20    29.45F

$$
MOZ051-052-059>065-240000-
...EAST CENTRAL MISSOURI...

CITY           SKY/WX    TMP DP  RH WIND       PRES   REMARKS
ST LOUIS INTL  MOCLDY    67  55  65 SE14G24   29.56F
SPIRIT OF STL  MOCLDY    66  56  70 SE7       29.55S
ST CHARLES     MOCLDY    66  56  70 SE20      29.55S

$$
MOZ072>076-082>087-097>100-106>115-240000-
...SOUTH CENTRAL AND SOUTHEAST MISSOURI...

CITY           SKY/WX    TMP DP  RH WIND       PRES   REMARKS
CAPE GIRARDEAU FAIR      71  54  54 S16G22    29.62F
FARMINGTON     FAIR      69  57  65 S21       29.59S
POPLAR BLUFF   FAIR      71  57  61 S13       29.62S
WEST PLAINS    FAIR      72  54  53 S16G26    29.55F

$$



USA.gov is the U.S. government's official web portal to all federal, state and local government web resources and services.